Back to catalog

CZ-3C DEB

AliveGTO
NORAD 39339·DEBRIS·🇨🇳 China

Launched Oct 31, 2010 from Xichang Satellite Launch Center

Loading…

TLE

StaleSource: Space-Track

Epoch: Sep 14, 2026, 02:03 UTC

1 39339U 10057D   26257.08583046  .00000059  00000-0  35834-2 0  9995
2 39339  20.5399 230.0096 7197044 256.0451 205.6655  2.14573381101221

Track CZ-3C DEB in real time with AllMySat

Download on the App Store